Location: Plainartige
(45.6866°N, 1.7993°E)
Time: 04:32:06
(UTC+00:00)

deb r/b Ablestar - Pass Details

Date: 03 October 2021
Orbit: 844 x 997 km, 67.7° (Epoch: 16 October)

Event Time Altitude Azimuth Distance (km) Brightness Sun altitude
Rises 17:47:51 0° 334° (NNW) 3,412 ? -4.1°
Reaches altitude 10° 17:51:02 10° 351° (N) 2,479 ? -4.7°
Maximum altitude 17:55:04 19° 37° (NE) 1,911 ? -5.4°
Drops below altitude 10° 17:59:09 10° 82° (E) 2,509 ? -6.1°
Enters shadow 18:00:00 - 88° (E) 2,740 ? -6.2°
